Regional Weather Roundup
Issued by NWS

Home | Current Version | Previous Version | Graphics & Text | Print | Product List | Glossary On
Versions: 1 2 3 4 5 6 7 8 9 10 11 12 13 14 15 16 17 18 19 20 21 22 23 24 25 26 27 28 29 30 31 32 33 34 35 36 37 38 39 40 41 42 43 44 45 46 47 48 49 50
000
ASUS43 KTOP 092059
RWRKS

WEATHER ROUNDUP FOR KANSAS
NATIONAL WEATHER SERVICE GOODLAND KS
300 PM CST FRI DEC 09 2016

NOTE:  "FAIR" INDICATES FEW OR NO CLOUDS BELOW 12,000 FEET WITH NO
SIGNIFICANT WEATHER AND/OR OBSTRUCTIONS TO VISIBILITY.

KSZ001>006-013>018-027>032-041>047-092200-
NORTHWEST KANSAS

CITY           SKY/WX    TMP DP  RH WIND       PRES   REMARKS
GOODLAND       SUNNY     36  24  62 S12       30.15S WCI  28
HAYS           MOSUNNY   30  14  51 S17       30.33S WCI  18
HILL CITY      MOSUNNY   32  14  47 S13       30.29F WCI  22
RUSSELL        CLOUDY    28  10  46 S17       30.34S WCI  16
$$

KSZ061>065-074>080-084>089-092200-
SOUTHWEST KANSAS

CITY           SKY/WX    TMP DP  RH WIND       PRES   REMARKS
DODGE CITY     SUNNY     34  16  47 S15G26    30.28S WCI  24
ELKHART          N/A     42  21  43 S10         N/A
GARDEN CITY    SUNNY     38  21  50 S18G25    30.22F WCI  28
LIBERAL        SUNNY     41  21  45 SE16G23   30.22S
$$

KSZ066>073-081>083-090>101-092200-
SOUTHEAST KANSAS

CITY           SKY/WX    TMP DP  RH WIND       PRES   REMARKS
CHANUTE        CLOUDY    31  12  45 SE10      30.51F WCI  22
COFFEYVILLE    CLOUDY    30  13  49 S6        30.54F
HUTCHINSON     CLOUDY    28  11  48 S16       30.41F WCI  16
MEDICINE LODGE   N/A     27  10  49 S13       30.40F WCI  16
NEWTON         CLOUDY    26  13  57 S15       30.43F WCI  14
PARSONS        CLOUDY    30  13  49 S6        30.53F
WICHITA INTL   CLOUDY    28  11  48 S14       30.44F WCI  17
WICHITA JABRA  CLOUDY    27  12  53 SE14      30.43F WCI  16
WINFIELD       CLOUDY    28  12  51 S12       30.48F WCI  18
$$

KSZ007>012-019>026-033>040-048>060-102>105-092200-
NORTHEAST KANSAS

CITY           SKY/WX    TMP DP  RH WIND       PRES   REMARKS
CONCORDIA      CLOUDY    24  13  62 SE14      30.42S WCI  12
EMPORIA        CLOUDY    28  11  48 S9        30.47F
LAWRENCE       CLOUDY    27  12  53 SE8       30.53F
MANHATTAN      CLOUDY    28  13  53 S9        30.47F
OLATHE IND     CLOUDY    27  10  49 S10       30.53F WCI  17
OLATHE EXE     CLOUDY    26  11  52 S9        30.52F
SALINA         CLOUDY    29  13  51 S14       30.43F WCI  18
TOPEKA BILLARD CLOUDY    28  12  51 SE9       30.52F
TOPEKA FORBES  CLOUDY    28  11  48 S9        30.50F
$$




USA.gov is the U.S. government's official web portal to all federal, state and local government web resources and services.